Location: Curicchi
(45.0167°N, 12.0500°E)
Time: 20:44:58
(UTC+00:00)

Cosmos 1844 Rocket - Pass Details

Date: 07 June 2020
Orbit: 826 x 843 km, 71.0° (Epoch: 11 July)

Event Time Altitude Azimuth Distance (km) Brightness Sun altitude
Rises 01:58:34 0° 335° (NNW) 3,389 6.2 -12.2°
Reaches altitude 10° 02:01:01 10° 336° (NNW) 2,448 5.5 -11.9°
Maximum altitude 02:06:38 78° 63° (ENE) 851 2.8 -11.2°
Drops below altitude 10° 02:12:12 10° 151° (SSE) 2,423 4.9 -10.6°
Sets 02:14:37 0° 152° (SSE) 3,351 5.6 -10.3°
